View from above orbital plane
|
View from above satellite
|
Ground track
|
The orbit data is extracted from the following two-line orbital elements,
1 13028U 82001B 21019.05068502 .00000053 00000-0 26075-4 0 9996
2 13028 74.0419 131.8428 0020882 249.9794 109.9112 14.38414657 45759
Epoch (UTC): | 19 January 2021 01:12:59 |
Eccentricity: | 0.0020882 |
inclination: | 74.0419° |
perigee height: | 749 km |
apogee height: | 778 km |
right ascension of ascending node: | 131.8428° |
argument of perigee: | 249.9794° |
revolutions per day: | 14.38414657 |
mean anomaly at epoch: | 109.9112° |
orbit number at epoch: | 4575 |
The dashed part of the orbit path shows where the satellite is in the earth's shadow,
|
|